PEGASUS DEB, 24340

Orbit data source: Space-Track

PEGASUS DEB, 24340 is space debris in LEO originally from a launch on Thu, 19 May 1994 UTC launched from the Air Force Western Test Range (AFWTR). Debris objects in space refer to the collection of defunct objects orbiting the Earth. Examples of debris include non-operational satellites, rocket bodies, and fragments generated from explosions, collisions, or faulty payload assembly.

Loading next visibility...
Identifier
24340, 1994-029NR
Orbit
LEO
Country
Flag of USUS
Related business
Manufacturer
Unknown
Mission
Spacecraft
Bus & Motor
Unknown
Mass
Unknown
Launch date (UTC)
1994-05-19 (32 years ago)
Launch vehicle
Unknown
Launch site
Air Force Western Test Range (AFWTR)
Object type
Payload
Rocket body
Debris
Shape & HBR
Unknown shape, 0.1 m
Radar Cross Section
Medium (>0.1 m² and <1 m²)

Expand to show TLE details & history
Last TLE update: 18 hours ago

TLE from 18 hours ago
0 PEGASUS DEB
1 24340U 94029NR  26263.32637289  .00000608  00000-0  25392-3 0  9994
2 24340  81.5952 223.8568 0826873 251.5231  99.4368 13.16682274538052
Epoch: 2026-09-20T07:49Z
TLE epoch observation values (Epoch: 2026-09-20T07:49:58.617Z)
Latitude
-0.00005°
Longitude
107.1404°
Altitude
1,352.123 km
Speed
7.11 km/s
True Right ascension
14h 55m 25s
True Declination
0° 00' 00"
Sunlit
Object was in daylight at epoch
Visualization orbit readout
Latitude
Unknown
Longitude
Unknown
Altitude
Unknown
Speed
Unknown
Apparent Right ascension
Unknown
Apparent Declination
Unknown
Sunlit
N/A
Visualization observer readout
Local Sidereal Time
18:56:15
Azimuth
Unknown
Elevation
Unknown
Doppler factor
Unknown
Orbital elements
Apogee altitude
1,820.851 km
Perigee altitude
568.5 km
Semi-major axis
7,572.813 km
Eccentricity
0.08269
Inclination
81.5952°
RAAN
223.8568°
Arg. of periapsis
251.5231°
True anomaly
108.58899°
Mean anomaly
99.4368°
Eccentric anomaly
104.03304°
Mean motion
3.2935 °/min
Orbital period
109.31 mins
BSTAR
0.00025392
Loading maneuver chart data...
Computing Atmospheric mass density...

Documentation

Showing up to 5 results
|